Location: Tel Aviv
(32.0670°N, 34.7670°E)
Time: 14:13:25
(UTC+03:00)

Explorer 11/Cluster Stage 4 - Pass Details

Date: 19 September 2024
Orbit: 464 x 1208 km, 28.8° (Epoch: 06 October)

Event Time Altitude Azimuth Distance (km) Brightness Sun altitude
Rises 03:38:29 0° 209° (SSW) 2,836 - -35.2°
Reaches altitude 10° 03:41:23 10° 188° (S) 2,065 - -34.7°
Maximum altitude 03:44:27 17° 149° (SSE) 1,800 - -34.1°
Exits shadow 03:45:55 15° 129° (SE) 1,956 8.8 -33.8°
Drops below altitude 10° 03:47:53 10° 110° (ESE) 2,378 9.5 -33.4°
Sets 03:51:35 0° 92° (E) 3,491 10.7 -32.7°
